Time,TemperatureF,DewpointF,PressureIn,WindDirection,WindDirectionDegrees,WindSpeedMPH,WindSpeedGustMPH,Humidity,HourlyPrecipIn,Conditions,Clouds,dailyrainin,SoftwareType,DateUTC
2013-02-22 00:01:00,72.1,69.6,29.85,SSW,192,6.0,10.0,92,0.00,,,0.00,meteohub,2013-02-22 06:01:00,
2013-02-22 00:06:00,72.1,69.6,29.85,SW,223,4.0,9.0,92,0.00,,,0.00,meteohub,2013-02-22 06:06:00,
2013-02-22 00:11:00,72.1,69.6,29.85,SSW,194,6.0,9.0,92,0.00,,,0.00,meteohub,2013-02-22 06:11:00,
2013-02-22 00:16:00,72.1,69.6,29.85,SSW,194,2.0,9.0,92,0.00,,,0.00,meteohub,2013-02-22 06:16:00,
2013-02-22 00:21:00,72.0,69.4,29.85,SSW,194,1.0,8.0,92,0.00,,,0.00,meteohub,2013-02-22 06:21:00,
2013-02-22 00:26:00,72.0,69.4,29.85,SSW,194,1.0,7.0,92,0.00,,,0.00,meteohub,2013-02-22 06:26:00,
2013-02-22 00:31:00,72.0,69.4,29.85,SSW,194,3.0,6.0,92,0.00,,,0.00,meteohub,2013-02-22 06:31:00,
2013-02-22 00:36:00,72.0,69.8,29.85,SSW,194,0.0,4.0,93,0.00,,,0.00,meteohub,2013-02-22 06:36:00,
2013-02-22 00:41:00,71.8,69.6,29.85,SSW,194,2.0,4.0,93,0.00,,,0.00,meteohub,2013-02-22 06:41:00,
2013-02-22 00:46:00,71.8,69.6,29.85,SSW,194,0.0,4.0,93,0.00,,,0.00,meteohub,2013-02-22 06:46:00,
2013-02-22 00:51:00,71.8,69.6,29.85,SSW,194,3.0,5.0,93,0.00,,,0.00,meteohub,2013-02-22 06:51:00,
2013-02-22 00:56:00,71.8,69.6,29.85,SSW,194,1.0,6.0,93,0.00,,,0.00,meteohub,2013-02-22 06:56:00,
2013-02-22 01:01:00,71.8,69.6,29.86,SSW,194,2.0,6.0,93,0.00,,,0.00,meteohub,2013-02-22 07:01:00,
2013-02-22 01:06:00,71.8,69.6,29.86,West,263,4.0,5.0,93,0.00,,,0.00,meteohub,2013-02-22 07:06:00,
2013-02-22 01:11:00,70.3,66.0,29.86,North,355,7.0,12.0,86,0.00,,,0.00,meteohub,2013-02-22 07:11:00,
2013-02-22 01:16:00,69.3,65.3,29.86,WNW,299,6.0,12.0,87,0.00,,,0.00,meteohub,2013-02-22 07:16:00,
2013-02-22 01:21:00,68.4,64.6,29.87,NW,320,9.0,13.0,88,0.00,,,0.00,meteohub,2013-02-22 07:21:00,
2013-02-22 01:26:00,67.3,63.9,29.87,NNW,348,10.0,13.0,89,0.00,,,0.00,meteohub,2013-02-22 07:26:00,
2013-02-22 01:31:00,66.6,63.0,29.87,NNW,345,6.0,13.0,88,0.00,,,0.00,meteohub,2013-02-22 07:31:00,
2013-02-22 01:36:00,65.8,62.4,29.87,NNW,340,4.0,12.0,89,0.00,,,0.00,meteohub,2013-02-22 07:36:00,
2013-02-22 01:41:00,65.3,62.6,29.87,North,355,3.0,11.0,91,0.00,,,0.00,meteohub,2013-02-22 07:41:00,
2013-02-22 01:46:00,64.9,62.2,29.87,North,355,1.0,8.0,91,0.00,,,0.00,meteohub,2013-02-22 07:46:00,
2013-02-22 01:51:00,64.8,62.4,29.87,North,355,3.0,7.0,92,0.00,,,0.00,meteohub,2013-02-22 07:51:00,
2013-02-22 01:56:00,64.6,62.2,29.87,North,355,3.0,6.0,92,0.00,,,0.00,meteohub,2013-02-22 07:56:00,
2013-02-22 02:01:00,64.6,62.2,29.86,NNW,336,3.0,7.0,92,0.00,,,0.00,meteohub,2013-02-22 08:01:00,
2013-02-22 02:06:00,64.6,62.2,29.87,NW,321,4.0,7.0,92,0.00,,,0.00,meteohub,2013-02-22 08:06:00,
2013-02-22 02:11:00,64.6,62.2,29.87,NW,322,4.0,7.0,92,0.00,,,0.00,meteohub,2013-02-22 08:11:00,
2013-02-22 02:16:00,64.4,62.1,29.88,NNW,329,3.0,7.0,92,0.00,,,0.00,meteohub,2013-02-22 08:16:00,
2013-02-22 02:21:00,64.2,61.9,29.87,NW,325,6.0,9.0,92,0.00,,,0.00,meteohub,2013-02-22 08:21:00,
2013-02-22 02:27:00,64.2,61.9,29.87,NW,325,1.0,9.0,92,0.00,,,0.00,meteohub,2013-02-22 08:27:00,
2013-02-22 02:31:00,64.0,61.3,29.86,North,355,5.0,9.0,91,0.00,,,0.00,meteohub,2013-02-22 08:31:00,
2013-02-22 02:37:00,63.9,61.2,29.86,North,5,3.0,8.0,91,0.00,,,0.00,meteohub,2013-02-22 08:37:00,
2013-02-22 02:42:00,63.9,61.2,29.86,North,5,3.0,8.0,91,0.00,,,0.00,meteohub,2013-02-22 08:42:00,
2013-02-22 02:47:00,63.9,61.2,29.86,NNE,13,3.0,8.0,91,0.00,,,0.00,meteohub,2013-02-22 08:47:00,
2013-02-22 02:52:00,63.9,61.2,29.86,North,5,2.0,6.0,91,0.00,,,0.00,meteohub,2013-02-22 08:52:00,
2013-02-22 02:57:00,63.7,60.6,29.86,NE,36,4.0,9.0,90,0.00,,,0.00,meteohub,2013-02-22 08:57:00,
2013-02-22 03:02:00,63.7,60.6,29.86,NNE,28,4.0,9.0,90,0.00,,,0.00,meteohub,2013-02-22 09:02:00,
2013-02-22 03:07:00,63.7,60.6,29.86,NNE,27,1.0,7.0,90,0.00,,,0.00,meteohub,2013-02-22 09:07:00,
2013-02-22 03:12:00,63.5,60.4,29.86,NNE,28,1.0,7.0,90,0.00,,,0.00,meteohub,2013-02-22 09:12:00,
2013-02-22 03:17:00,63.5,60.4,29.86,NE,43,4.0,8.0,90,0.00,,,0.00,meteohub,2013-02-22 09:17:00,
2013-02-22 03:22:00,63.5,60.3,29.86,NE,38,2.0,8.0,89,0.00,,,0.00,meteohub,2013-02-22 09:22:00,
2013-02-22 03:27:00,63.5,60.3,29.85,NE,42,7.0,8.0,89,0.00,,,0.00,meteohub,2013-02-22 09:27:00,
2013-02-22 03:32:00,63.3,60.3,29.85,ENE,59,5.0,9.0,90,0.00,,,0.00,meteohub,2013-02-22 09:32:00,
2013-02-22 03:37:00,63.3,60.3,29.85,NE,53,3.0,9.0,90,0.00,,,0.00,meteohub,2013-02-22 09:37:00,
2013-02-22 03:42:00,63.1,60.1,29.86,NE,38,3.0,9.0,90,0.00,,,0.00,meteohub,2013-02-22 09:42:00,
2013-02-22 03:47:00,63.1,60.1,29.86,NE,41,6.0,7.0,90,0.00,,,0.00,meteohub,2013-02-22 09:47:00,
2013-02-22 03:52:00,63.1,60.4,29.85,NE,36,4.0,7.0,91,0.00,,,0.00,meteohub,2013-02-22 09:52:00,
2013-02-22 03:57:00,63.1,60.4,29.86,NE,53,7.0,7.0,91,0.00,,,0.00,meteohub,2013-02-22 09:57:00,
2013-02-22 04:02:00,63.3,60.6,29.86,NE,49,2.0,9.0,91,0.00,,,0.00,meteohub,2013-02-22 10:02:00,
2013-02-22 04:07:00,63.3,60.6,29.87,NNE,29,2.0,9.0,91,0.00,,,0.00,meteohub,2013-02-22 10:07:00,
2013-02-22 04:12:00,63.3,60.6,29.87,NNE,26,3.0,9.0,91,0.00,,,0.00,meteohub,2013-02-22 10:12:00,
2013-02-22 04:17:00,63.3,60.6,29.87,NNE,22,5.0,8.0,91,0.00,,,0.00,meteohub,2013-02-22 10:17:00,
2013-02-22 04:22:00,63.3,60.6,29.88,NE,37,6.0,7.0,91,0.00,,,0.00,meteohub,2013-02-22 10:22:00,
2013-02-22 04:27:00,63.3,60.6,29.88,NE,36,4.0,8.0,91,0.00,,,0.00,meteohub,2013-02-22 10:27:00,
2013-02-22 04:32:00,63.3,60.6,29.88,North,350,7.0,9.0,91,0.00,,,0.00,meteohub,2013-02-22 10:32:00,
2013-02-22 04:37:00,63.1,60.4,29.88,NE,34,1.0,9.0,91,0.00,,,0.00,meteohub,2013-02-22 10:37:00,
2013-02-22 04:41:00,63.3,60.6,29.89,North,5,3.0,9.0,91,0.00,,,0.00,meteohub,2013-02-22 10:41:00,
2013-02-22 04:46:00,63.3,60.6,29.89,North,355,6.0,8.0,91,0.00,,,0.00,meteohub,2013-02-22 10:46:00,
2013-02-22 04:52:00,63.3,60.3,29.90,NNE,17,4.0,10.0,90,0.00,,,0.00,meteohub,2013-02-22 10:52:00,
2013-02-22 04:56:00,63.1,60.1,29.90,NNE,16,1.0,10.0,90,0.00,,,0.00,meteohub,2013-02-22 10:56:00,
2013-02-22 05:02:00,63.1,60.1,29.90,NE,36,4.0,10.0,90,0.00,,,0.00,meteohub,2013-02-22 11:02:00,
2013-02-22 05:07:00,63.1,60.1,29.90,NE,38,2.0,7.0,90,0.00,,,0.00,meteohub,2013-02-22 11:07:00,
2013-02-22 05:12:00,63.1,59.9,29.90,NNE,21,2.0,9.0,89,0.00,,,0.00,meteohub,2013-02-22 11:12:00,
2013-02-22 05:17:00,63.1,59.5,29.90,NE,34,3.0,9.0,88,0.00,,,0.00,meteohub,2013-02-22 11:17:00,
2013-02-22 05:22:00,63.0,58.6,29.90,NNE,30,4.0,9.0,86,0.00,,,0.00,meteohub,2013-02-22 11:22:00,
2013-02-22 05:27:00,63.0,57.7,29.89,NE,50,7.0,10.0,83,0.00,,,0.00,meteohub,2013-02-22 11:27:00,
2013-02-22 05:32:00,62.8,57.6,29.89,NNE,33,3.0,10.0,83,0.00,,,0.00,meteohub,2013-02-22 11:32:00,
2013-02-22 05:37:00,62.8,57.6,29.89,NNE,13,3.0,10.0,83,0.00,,,0.00,meteohub,2013-02-22 11:37:00,
2013-02-22 05:42:00,62.4,57.2,29.89,NE,51,4.0,10.0,83,0.00,,,0.00,meteohub,2013-02-22 11:42:00,
2013-02-22 05:47:00,62.2,57.4,29.89,NNE,31,0.0,9.0,84,0.00,,,0.00,meteohub,2013-02-22 11:47:00,
2013-02-22 05:52:00,62.2,57.4,29.90,NE,38,3.0,9.0,84,0.00,,,0.00,meteohub,2013-02-22 11:52:00,
2013-02-22 05:57:00,62.1,57.2,29.90,NNE,26,4.0,8.0,84,0.00,,,0.00,meteohub,2013-02-22 11:57:00,
2013-02-22 06:02:00,62.1,57.2,29.90,North,11,3.0,7.0,84,0.00,,,0.00,meteohub,2013-02-22 12:02:00,
2013-02-22 06:07:00,62.1,57.2,29.90,NNE,18,7.0,8.0,84,0.00,,,0.00,meteohub,2013-02-22 12:07:00,
2013-02-22 06:12:00,61.9,57.4,29.91,NNE,14,3.0,8.0,85,0.00,,,0.00,meteohub,2013-02-22 12:12:00,
2013-02-22 06:17:00,61.9,57.4,29.91,NNE,16,2.0,8.0,85,0.00,,,0.00,meteohub,2013-02-22 12:17:00,
2013-02-22 06:22:00,61.9,57.4,29.92,NNE,15,2.0,8.0,85,0.00,,,0.00,meteohub,2013-02-22 12:22:00,
2013-02-22 06:27:00,61.9,57.4,29.92,North,355,3.0,6.0,85,0.00,,,0.00,meteohub,2013-02-22 12:27:00,
2013-02-22 06:32:00,61.9,57.4,29.92,North,0,2.0,6.0,85,0.00,,,0.00,meteohub,2013-02-22 12:32:00,
2013-02-22 06:37:00,61.9,57.0,29.93,North,355,5.0,7.0,84,0.00,,,0.00,meteohub,2013-02-22 12:37:00,
2013-02-22 06:42:00,61.9,57.0,29.94,North,5,2.0,7.0,84,0.00,,,0.00,meteohub,2013-02-22 12:42:00,
2013-02-22 06:47:00,61.9,56.7,29.93,NNE,15,2.0,7.0,83,0.00,,,0.00,meteohub,2013-02-22 12:47:00,
2013-02-22 06:52:00,61.9,56.7,29.93,NE,44,3.0,6.0,83,0.00,,,0.00,meteohub,2013-02-22 12:52:00,
2013-02-22 06:57:00,61.9,57.0,29.93,NE,38,5.0,7.0,84,0.00,,,0.00,meteohub,2013-02-22 12:57:00,
2013-02-22 07:02:00,61.9,57.0,29.94,NNE,27,0.0,7.0,84,0.00,,,0.00,meteohub,2013-02-22 13:02:00,
2013-02-22 07:07:00,61.9,56.7,29.94,NE,45,3.0,7.0,83,0.00,,,0.00,meteohub,2013-02-22 13:07:00,
2013-02-22 07:12:00,61.9,56.7,29.94,NNE,28,5.0,6.0,83,0.00,,,0.00,meteohub,2013-02-22 13:12:00,
2013-02-22 07:17:00,61.7,56.5,29.94,NE,48,6.0,7.0,83,0.00,,,0.00,meteohub,2013-02-22 13:17:00,
2013-02-22 07:22:00,61.7,56.5,29.94,NE,44,0.0,7.0,83,0.00,,,0.00,meteohub,2013-02-22 13:22:00,
2013-02-22 07:27:00,61.7,56.5,29.94,NE,34,2.0,7.0,83,0.00,,,0.00,meteohub,2013-02-22 13:27:00,
2013-02-22 07:32:00,61.9,56.7,29.94,NNE,19,2.0,7.0,83,0.00,,,0.00,meteohub,2013-02-22 13:32:00,
2013-02-22 07:37:00,62.1,56.5,29.95,NNE,30,3.0,7.0,82,0.00,,,0.00,meteohub,2013-02-22 13:37:00,
2013-02-22 07:42:00,62.2,56.3,29.95,NE,39,4.0,7.0,81,0.00,,,0.00,meteohub,2013-02-22 13:42:00,
2013-02-22 07:47:00,62.2,55.9,29.95,NE,56,3.0,7.0,80,0.00,,,0.00,meteohub,2013-02-22 13:47:00,
2013-02-22 07:52:00,62.4,55.8,29.95,NE,36,3.0,8.0,79,0.00,,,0.00,meteohub,2013-02-22 13:52:00,
2013-02-22 07:57:00,62.6,55.9,29.95,NE,40,7.0,9.0,79,0.00,,,0.00,meteohub,2013-02-22 13:57:00,
2013-02-22 08:02:00,62.8,55.4,29.95,NE,54,3.0,9.0,77,0.00,,,0.00,meteohub,2013-02-22 14:02:00,
2013-02-22 08:07:00,63.0,55.6,29.95,NE,51,3.0,9.0,77,0.00,,,0.00,meteohub,2013-02-22 14:07:00,
2013-02-22 08:12:00,63.1,55.0,29.95,ENE,63,2.0,9.0,75,0.00,,,0.00,meteohub,2013-02-22 14:12:00,
2013-02-22 08:17:00,63.1,54.7,29.96,NE,35,3.0,9.0,74,0.00,,,0.00,meteohub,2013-02-22 14:17:00,
2013-02-22 08:22:00,63.3,54.9,29.96,NE,40,3.0,10.0,74,0.00,,,0.00,meteohub,2013-02-22 14:22:00,
2013-02-22 08:27:00,63.3,54.9,29.96,NE,47,5.0,10.0,74,0.00,,,0.00,meteohub,2013-02-22 14:27:00,
2013-02-22 08:32:00,63.3,54.9,29.97,NE,40,3.0,8.0,74,0.00,,,0.00,meteohub,2013-02-22 14:32:00,
2013-02-22 08:37:00,63.3,54.5,29.96,NE,36,7.0,7.0,73,0.00,,,0.00,meteohub,2013-02-22 14:37:00,
2013-02-22 08:42:00,63.3,54.1,29.97,ENE,60,2.0,10.0,72,0.00,,,0.00,meteohub,2013-02-22 14:42:00,
2013-02-22 08:47:00,63.3,54.1,29.96,NNE,28,2.0,10.0,72,0.00,,,0.00,meteohub,2013-02-22 14:47:00,
2013-02-22 08:52:00,63.3,53.8,29.96,NNE,33,5.0,10.0,71,0.00,,,0.00,meteohub,2013-02-22 14:52:00,
2013-02-22 08:57:00,63.7,53.8,29.97,NE,50,8.0,10.0,70,0.00,,,0.00,meteohub,2013-02-22 14:57:00,
2013-02-22 09:02:00,63.7,53.2,29.97,NE,42,7.0,10.0,69,0.00,,,0.00,meteohub,2013-02-22 15:02:00,
2013-02-22 09:07:00,63.7,52.9,29.97,NE,42,6.0,10.0,68,0.00,,,0.00,meteohub,2013-02-22 15:07:00,
2013-02-22 09:12:00,63.7,52.9,29.97,ENE,65,1.0,8.0,68,0.00,,,0.00,meteohub,2013-02-22 15:12:00,
2013-02-22 09:17:00,63.9,53.1,29.97,NE,55,5.0,8.0,68,0.00,,,0.00,meteohub,2013-02-22 15:17:00,
2013-02-22 09:22:00,63.7,52.5,29.97,ENE,63,4.0,9.0,67,0.00,,,0.00,meteohub,2013-02-22 15:22:00,
2013-02-22 09:27:00,63.7,52.9,29.97,NE,56,6.0,9.0,68,0.00,,,0.00,meteohub,2013-02-22 15:27:00,
2013-02-22 09:32:00,63.7,52.9,29.97,ENE,67,2.0,9.0,68,0.00,,,0.00,meteohub,2013-02-22 15:32:00,
2013-02-22 09:37:00,63.7,53.2,29.97,ENE,67,0.0,7.0,69,0.00,,,0.00,meteohub,2013-02-22 15:37:00,
2013-02-22 09:42:00,63.9,53.4,29.97,ENE,67,2.0,7.0,69,0.00,,,0.00,meteohub,2013-02-22 15:42:00,
2013-02-22 09:47:00,63.9,54.0,29.97,ENE,67,2.0,5.0,70,0.00,,,0.00,meteohub,2013-02-22 15:47:00,
2013-02-22 09:52:00,64.0,54.1,29.96,ENE,65,3.0,5.0,70,0.00,,,0.00,meteohub,2013-02-22 15:52:00,
2013-02-22 09:57:00,64.0,53.2,29.96,ENE,60,2.0,5.0,68,0.00,,,0.00,meteohub,2013-02-22 15:57:00,
2013-02-22 10:02:00,64.2,53.1,29.97,ENE,71,0.0,5.0,67,0.00,,,0.00,meteohub,2013-02-22 16:02:00,
2013-02-22 10:07:00,64.2,52.7,29.97,East,84,2.0,7.0,66,0.00,,,0.00,meteohub,2013-02-22 16:07:00,
2013-02-22 10:12:00,64.2,53.1,29.97,East,84,2.0,7.0,67,0.00,,,0.00,meteohub,2013-02-22 16:12:00,
2013-02-22 10:17:00,64.2,53.1,29.98,East,84,5.0,6.0,67,0.00,,,0.00,meteohub,2013-02-22 16:17:00,
2013-02-22 10:22:00,64.0,52.9,29.97,ENE,57,4.0,6.0,67,0.00,,,0.00,meteohub,2013-02-22 16:22:00,
2013-02-22 10:27:00,64.2,53.1,29.96,East,84,2.0,7.0,67,0.00,,,0.00,meteohub,2013-02-22 16:27:00,
2013-02-22 10:32:00,64.2,52.7,29.96,ENE,69,4.0,8.0,66,0.00,,,0.00,meteohub,2013-02-22 16:32:00,
2013-02-22 10:37:00,64.4,53.2,29.97,NE,55,2.0,10.0,67,0.00,,,0.00,meteohub,2013-02-22 16:37:00,
2013-02-22 10:42:00,64.6,52.9,29.97,ENE,74,3.0,10.0,66,0.00,,,0.00,meteohub,2013-02-22 16:42:00,
2013-02-22 10:47:00,64.6,52.9,29.97,ENE,74,2.0,10.0,66,0.00,,,0.00,meteohub,2013-02-22 16:47:00,
2013-02-22 10:52:00,64.8,53.1,29.98,NNE,22,2.0,8.0,66,0.00,,,0.00,meteohub,2013-02-22 16:52:00,
2013-02-22 10:57:00,64.9,53.2,29.97,NE,35,3.0,7.0,66,0.00,,,0.00,meteohub,2013-02-22 16:57:00,
2013-02-22 11:02:00,65.1,53.4,29.97,ENE,65,2.0,7.0,66,0.00,,,0.00,meteohub,2013-02-22 17:02:00,
2013-02-22 11:07:00,65.1,52.7,29.98,ENE,65,3.0,7.0,64,0.00,,,0.00,meteohub,2013-02-22 17:07:00,
2013-02-22 11:12:00,65.1,52.7,29.98,ENE,63,3.0,7.0,64,0.00,,,0.00,meteohub,2013-02-22 17:12:00,
2013-02-22 11:17:00,65.1,52.7,29.98,ENE,68,2.0,7.0,64,0.00,,,0.00,meteohub,2013-02-22 17:17:00,
2013-02-22 11:22:00,65.1,53.4,29.97,ENE,68,3.0,7.0,66,0.00,,,0.00,meteohub,2013-02-22 17:22:00,
2013-02-22 11:27:00,65.3,53.2,29.96,ENE,63,2.0,8.0,65,0.00,,,0.00,meteohub,2013-02-22 17:27:00,
2013-02-22 11:32:00,65.5,53.1,29.96,ENE,74,4.0,8.0,64,0.00,,,0.00,meteohub,2013-02-22 17:32:00,
2013-02-22 11:37:00,65.3,52.9,29.95,ENE,67,3.0,9.0,64,0.00,,,0.00,meteohub,2013-02-22 17:37:00,
2013-02-22 11:42:00,65.5,53.4,29.95,ENE,76,2.0,10.0,65,0.00,,,0.00,meteohub,2013-02-22 17:42:00,
2013-02-22 11:47:00,65.7,52.3,29.95,ENE,70,3.0,10.0,62,0.00,,,0.00,meteohub,2013-02-22 17:47:00,
2013-02-22 11:52:00,65.7,52.7,29.96,ENE,59,5.0,10.0,63,0.00,,,0.00,meteohub,2013-02-22 17:52:00,
2013-02-22 11:57:00,65.5,52.5,29.96,NE,40,3.0,10.0,63,0.00,,,0.00,meteohub,2013-02-22 17:57:00,
2013-02-22 12:02:00,65.5,52.2,29.96,NNE,26,4.0,9.0,62,0.00,,,0.00,meteohub,2013-02-22 18:02:00,
2013-02-22 12:07:00,65.5,52.5,29.95,NE,49,6.0,8.0,63,0.00,,,0.00,meteohub,2013-02-22 18:07:00,
2013-02-22 12:12:00,65.7,52.3,29.94,NE,51,4.0,8.0,62,0.00,,,0.00,meteohub,2013-02-22 18:12:00,
2013-02-22 12:17:00,66.2,53.2,29.94,NE,53,3.0,9.0,63,0.00,,,0.00,meteohub,2013-02-22 18:17:00,
2013-02-22 12:22:00,66.7,52.0,29.94,ENE,58,10.0,10.0,59,0.00,,,0.00,meteohub,2013-02-22 18:22:00,
2013-02-22 12:27:00,66.6,52.2,29.94,ENE,76,7.0,11.0,60,0.00,,,0.00,meteohub,2013-02-22 18:27:00,
2013-02-22 12:32:00,66.6,51.8,29.94,NE,53,5.0,11.0,59,0.00,,,0.00,meteohub,2013-02-22 18:32:00,
2013-02-22 12:37:00,66.6,51.3,29.93,NE,53,3.0,11.0,58,0.00,,,0.00,meteohub,2013-02-22 18:37:00,
2013-02-22 12:42:00,66.6,50.4,29.94,ENE,57,5.0,11.0,56,0.00,,,0.00,meteohub,2013-02-22 18:42:00,
2013-02-22 12:47:00,66.4,49.3,29.93,NE,35,3.0,10.0,54,0.00,,,0.00,meteohub,2013-02-22 18:47:00,
2013-02-22 12:52:00,66.4,49.6,29.93,NE,44,3.0,13.0,55,0.00,,,0.00,meteohub,2013-02-22 18:52:00,
2013-02-22 12:57:00,66.4,48.2,29.92,NE,56,0.0,13.0,52,0.00,,,0.00,meteohub,2013-02-22 18:57:00,
2013-02-22 13:02:00,66.6,48.4,29.91,ENE,64,10.0,11.0,52,0.00,,,0.00,meteohub,2013-02-22 19:02:00,
2013-02-22 13:07:00,67.1,49.5,29.90,NE,53,4.0,11.0,53,0.00,,,0.00,meteohub,2013-02-22 19:07:00,
2013-02-22 13:12:00,67.5,48.7,29.90,ENE,67,4.0,13.0,51,0.00,,,0.00,meteohub,2013-02-22 19:12:00,
2013-02-22 13:17:00,67.6,48.4,29.91,ESE,117,3.0,13.0,50,0.00,,,0.00,meteohub,2013-02-22 19:17:00,
2013-02-22 13:22:00,67.5,48.2,29.91,NE,46,5.0,13.0,50,0.00,,,0.00,meteohub,2013-02-22 19:22:00,
2013-02-22 13:27:00,67.3,48.0,29.91,NE,56,6.0,12.0,50,0.00,,,0.00,meteohub,2013-02-22 19:27:00,
2013-02-22 13:32:00,66.9,48.2,29.91,ENE,76,8.0,12.0,51,0.00,,,0.00,meteohub,2013-02-22 19:32:00,
2013-02-22 13:37:00,66.7,48.0,29.91,East,83,3.0,11.0,51,0.00,,,0.00,meteohub,2013-02-22 19:37:00,
2013-02-22 13:42:00,66.7,48.6,29.91,East,79,7.0,11.0,52,0.00,,,0.00,meteohub,2013-02-22 19:42:00,
2013-02-22 13:47:00,66.6,48.4,29.90,NE,53,3.0,11.0,52,0.00,,,0.00,meteohub,2013-02-22 19:47:00,
2013-02-22 13:52:00,66.6,48.4,29.90,NE,38,8.0,9.0,52,0.00,,,0.00,meteohub,2013-02-22 19:52:00,
2013-02-22 13:57:00,66.4,48.7,29.90,ENE,62,4.0,9.0,53,0.00,,,0.00,meteohub,2013-02-22 19:57:00,
2013-02-22 14:02:00,66.6,49.8,29.90,NNE,30,2.0,9.0,55,0.00,,,0.00,meteohub,2013-02-22 20:02:00,
2013-02-22 14:07:00,66.6,48.9,29.90,ENE,61,8.0,8.0,53,0.00,,,0.00,meteohub,2013-02-22 20:07:00,
2013-02-22 14:12:00,66.6,48.9,29.90,NNE,16,3.0,12.0,53,0.00,,,0.00,meteohub,2013-02-22 20:12:00,
2013-02-22 14:17:00,66.6,49.5,29.91,NE,43,7.0,12.0,54,0.00,,,0.00,meteohub,2013-02-22 20:17:00,
2013-02-22 14:22:00,66.4,49.3,29.90,NE,51,6.0,12.0,54,0.00,,,0.00,meteohub,2013-02-22 20:22:00,
2013-02-22 14:27:00,66.2,50.0,29.90,NE,44,5.0,10.0,56,0.00,,,0.00,meteohub,2013-02-22 20:27:00,
2013-02-22 14:32:00,66.0,50.4,29.90,NE,38,4.0,10.0,57,0.00,,,0.00,meteohub,2013-02-22 20:32:00,
2013-02-22 14:37:00,66.0,50.4,29.90,ENE,74,7.0,9.0,57,0.00,,,0.00,meteohub,2013-02-22 20:37:00,
2013-02-22 14:41:00,65.8,50.7,29.90,ENE,58,1.0,9.0,58,0.00,,,0.00,meteohub,2013-02-22 20:41:00,
2013-02-22 14:46:00,65.7,51.8,29.90,ENE,59,4.0,7.0,61,0.00,,,0.00,meteohub,2013-02-22 20:46:00,
2013-02-22 14:51:00,64.9,52.0,29.90,NE,55,3.0,8.0,63,0.00,,,0.00,meteohub,2013-02-22 20:51:00,
2013-02-22 14:56:00,64.8,52.3,29.90,NE,51,6.0,8.0,64,0.00,,,0.00,meteohub,2013-02-22 20:56:00,
2013-02-22 15:01:00,64.6,52.2,29.90,NE,47,2.0,8.0,64,0.00,,,0.00,meteohub,2013-02-22 21:01:00,
2013-02-22 15:07:00,64.6,52.2,29.90,NNE,21,5.0,7.0,64,0.00,,,0.00,meteohub,2013-02-22 21:07:00,
2013-02-22 15:12:00,64.8,51.8,29.89,NE,36,4.0,8.0,63,0.00,,,0.00,meteohub,2013-02-22 21:12:00,
2013-02-22 15:17:00,64.8,51.8,29.89,NE,45,8.0,10.0,63,0.00,,,0.00,meteohub,2013-02-22 21:17:00,
2013-02-22 15:22:00,64.8,51.8,29.88,ENE,61,4.0,10.0,63,0.00,,,0.00,meteohub,2013-02-22 21:22:00,
2013-02-22 15:27:00,64.2,52.7,29.88,NE,36,3.0,10.0,66,0.00,,,0.00,meteohub,2013-02-22 21:27:00,
2013-02-22 15:31:00,63.9,52.7,29.89,NE,51,1.0,8.0,67,0.00,,,0.00,meteohub,2013-02-22 21:31:00,
2013-02-22 15:36:00,63.9,53.1,29.90,NE,51,2.0,8.0,68,0.00,,,0.00,meteohub,2013-02-22 21:36:00,
2013-02-22 15:41:00,63.7,53.8,29.90,NW,313,3.0,5.0,70,0.00,,,0.00,meteohub,2013-02-22 21:41:00,
2013-02-22 15:46:00,63.1,53.6,29.89,NE,37,4.0,5.0,71,0.00,,,0.00,meteohub,2013-02-22 21:46:00,
2013-02-22 15:51:00,63.0,54.1,29.89,NNE,31,2.0,7.0,73,0.00,,,0.00,meteohub,2013-02-22 21:51:00,
2013-02-22 15:57:00,62.6,54.5,29.88,NNE,27,2.0,7.0,75,0.00,,,0.00,meteohub,2013-02-22 21:57:00,
2013-02-22 16:02:00,62.2,54.9,29.88,North,355,4.0,7.0,77,0.00,,,0.00,meteohub,2013-02-22 22:02:00,
2013-02-22 16:07:00,62.2,55.6,29.89,NNW,329,4.0,6.0,79,0.00,,,0.00,meteohub,2013-02-22 22:07:00,
2013-02-22 16:12:00,62.4,55.8,29.90,North,350,3.0,6.0,79,0.00,,,0.00,meteohub,2013-02-22 22:12:00,
2013-02-22 16:17:00,62.4,56.1,29.90,North,350,3.0,6.0,80,0.00,,,0.00,meteohub,2013-02-22 22:17:00,
2013-02-22 16:22:00,62.4,55.8,29.90,NNW,348,3.0,6.0,79,0.00,,,0.00,meteohub,2013-02-22 22:22:00,
2013-02-22 16:26:00,62.2,55.6,29.89,NE,35,4.0,6.0,79,0.00,,,0.00,meteohub,2013-02-22 22:26:00,
2013-02-22 16:31:00,62.2,55.6,29.88,NNE,13,5.0,7.0,79,0.00,,,0.00,meteohub,2013-02-22 22:31:00,
2013-02-22 16:37:00,62.2,55.9,29.88,NNE,31,1.0,7.0,80,0.00,,,0.00,meteohub,2013-02-22 22:37:00,
2013-02-22 16:41:00,62.2,55.6,29.88,NNE,26,2.0,7.0,79,0.00,,,0.00,meteohub,2013-02-22 22:41:00,
2013-02-22 16:46:00,62.1,55.0,29.88,NE,34,2.0,7.0,78,0.00,,,0.00,meteohub,2013-02-22 22:46:00,
2013-02-22 16:52:00,62.1,55.0,29.88,North,5,3.0,7.0,78,0.00,,,0.00,meteohub,2013-02-22 22:52:00,
2013-02-22 16:57:00,62.1,55.0,29.88,North,10,1.0,7.0,78,0.00,,,0.00,meteohub,2013-02-22 22:57:00,
2013-02-22 17:01:00,62.1,55.0,29.88,NE,53,6.0,7.0,78,0.00,,,0.00,meteohub,2013-02-22 23:01:00,
2013-02-22 17:07:00,62.1,54.3,29.88,NE,44,5.0,7.0,76,0.00,,,0.00,meteohub,2013-02-22 23:07:00,
2013-02-22 17:12:00,62.1,54.3,29.88,NE,34,6.0,9.0,76,0.00,,,0.00,meteohub,2013-02-22 23:12:00,
2013-02-22 17:17:00,61.9,54.7,29.89,NNE,31,4.0,9.0,77,0.00,,,0.00,meteohub,2013-02-22 23:17:00,
2013-02-22 17:21:00,61.7,54.5,29.89,NNE,27,2.0,9.0,77,0.00,,,0.00,meteohub,2013-02-22 23:21:00,
2013-02-22 17:26:00,61.5,54.7,29.89,NNE,19,1.0,7.0,78,0.00,,,0.00,meteohub,2013-02-22 23:26:00,
2013-02-22 17:32:00,61.5,54.7,29.90,North,11,6.0,7.0,78,0.00,,,0.00,meteohub,2013-02-22 23:32:00,
2013-02-22 17:37:00,61.5,54.3,29.90,North,10,2.0,6.0,77,0.00,,,0.00,meteohub,2013-02-22 23:37:00,
2013-02-22 17:42:00,61.5,54.3,29.90,NNE,31,1.0,6.0,77,0.00,,,0.00,meteohub,2013-02-22 23:42:00,
2013-02-22 17:47:00,61.5,54.0,29.90,NE,42,5.0,9.0,76,0.00,,,0.00,meteohub,2013-02-22 23:47:00,
2013-02-22 17:52:00,61.5,54.0,29.89,NNE,28,4.0,9.0,76,0.00,,,0.00,meteohub,2013-02-22 23:52:00,
2013-02-22 17:57:00,61.5,53.6,29.90,NNE,19,3.0,9.0,75,0.00,,,0.00,meteohub,2013-02-22 23:57:00,
2013-02-22 18:02:00,61.5,53.2,29.90,North,0,5.0,9.0,74,0.00,,,0.00,meteohub,2013-02-23 00:02:00,
2013-02-22 18:07:00,61.7,53.2,29.89,NNE,13,2.0,8.0,74,0.00,,,0.00,meteohub,2013-02-23 00:07:00,
2013-02-22 18:11:00,61.7,53.2,29.89,NE,47,4.0,10.0,74,0.00,,,0.00,meteohub,2013-02-23 00:11:00,
2013-02-22 18:16:00,61.5,53.2,29.90,NNW,347,6.0,10.0,74,0.00,,,0.00,meteohub,2013-02-23 00:16:00,
2013-02-22 18:22:00,61.5,52.7,29.89,NE,46,7.0,10.0,73,0.00,,,0.00,meteohub,2013-02-23 00:22:00,
2013-02-22 18:27:00,61.5,52.7,29.89,NE,46,8.0,12.0,73,0.00,,,0.00,meteohub,2013-02-23 00:27:00,
2013-02-22 18:32:00,61.5,52.3,29.90,NNE,30,4.0,12.0,72,0.00,,,0.00,meteohub,2013-02-23 00:32:00,
2013-02-22 18:37:00,61.5,52.0,29.90,NE,35,2.0,11.0,71,0.00,,,0.00,meteohub,2013-02-23 00:37:00,
2013-02-22 18:42:00,61.5,52.0,29.90,NE,34,2.0,10.0,71,0.00,,,0.00,meteohub,2013-02-23 00:42:00,
2013-02-22 18:46:00,61.5,51.6,29.91,North,355,0.0,8.0,70,0.00,,,0.00,meteohub,2013-02-23 00:46:00,
2013-02-22 18:52:00,61.5,51.6,29.90,NNE,22,6.0,11.0,70,0.00,,,0.00,meteohub,2013-02-23 00:52:00,
2013-02-22 18:56:00,61.5,51.6,29.90,NE,48,6.0,12.0,70,0.00,,,0.00,meteohub,2013-02-23 00:56:00,
2013-02-22 19:01:00,61.5,51.6,29.89,NNE,17,4.0,12.0,70,0.00,,,0.00,meteohub,2013-02-23 01:01:00,
2013-02-22 19:06:00,61.3,51.8,29.90,NNE,20,10.0,12.0,71,0.00,,,0.00,meteohub,2013-02-23 01:06:00,
2013-02-22 19:11:00,61.3,51.8,29.90,NE,56,3.0,12.0,71,0.00,,,0.00,meteohub,2013-02-23 01:11:00,
2013-02-22 19:16:00,61.3,52.2,29.89,North,5,8.0,12.0,72,0.00,,,0.00,meteohub,2013-02-23 01:16:00,
2013-02-22 19:22:00,61.2,53.2,29.91,NNE,31,1.0,16.0,75,0.00,,,0.00,meteohub,2013-02-23 01:22:00,
2013-02-22 19:27:00,60.3,53.8,29.91,North,11,5.0,16.0,79,0.00,,,0.00,meteohub,2013-02-23 01:27:00,
2013-02-22 19:31:00,58.1,53.2,29.90,NNW,348,7.0,13.0,84,0.00,,,0.00,meteohub,2013-02-23 01:31:00,
2013-02-22 19:37:00,57.4,53.2,29.90,NNE,19,8.0,11.0,86,0.00,,,0.00,meteohub,2013-02-23 01:37:00,
2013-02-22 19:42:00,57.6,53.1,29.89,NE,47,8.0,18.0,85,0.00,,,0.00,meteohub,2013-02-23 01:42:00,
2013-02-22 19:47:00,57.9,53.1,29.90,North,349,4.0,18.0,84,0.00,,,0.00,meteohub,2013-02-23 01:47:00,
2013-02-22 19:52:00,58.3,53.8,29.90,NE,45,4.0,18.0,85,0.00,,,0.00,meteohub,2013-02-23 01:52:00,
2013-02-22 19:57:00,58.3,54.1,29.89,North,11,4.0,13.0,86,0.00,,,0.00,meteohub,2013-02-23 01:57:00,
2013-02-22 20:02:00,57.9,54.1,29.92,SE,138,3.0,9.0,87,0.00,,,0.00,meteohub,2013-02-23 02:02:00,
2013-02-22 20:07:00,57.9,54.3,29.94,South,185,5.0,7.0,88,0.00,,,0.00,meteohub,2013-02-23 02:07:00,
2013-02-22 20:12:00,57.7,54.5,29.94,South,184,0.0,7.0,89,0.00,,,0.00,meteohub,2013-02-23 02:12:00,
2013-02-22 20:17:00,57.6,54.7,29.94,South,184,3.0,5.0,90,0.00,,,0.00,meteohub,2013-02-23 02:17:00,
2013-02-22 20:22:00,57.4,54.9,29.93,SSE,165,0.0,5.0,91,0.00,,,0.00,meteohub,2013-02-23 02:22:00,
2013-02-22 20:27:00,57.0,54.7,29.93,SSE,164,1.0,5.0,92,0.00,,,0.00,meteohub,2013-02-23 02:27:00,
2013-02-22 20:32:00,57.0,54.7,29.92,SSE,164,3.0,5.0,92,0.00,,,0.00,meteohub,2013-02-23 02:32:00,
2013-02-22 20:37:00,57.0,54.7,29.91,SSE,150,0.0,5.0,92,0.00,,,0.00,meteohub,2013-02-23 02:37:00,
2013-02-22 20:42:00,57.0,55.0,29.93,SSE,150,0.0,5.0,93,0.00,,,0.00,meteohub,2013-02-23 02:42:00,
2013-02-22 20:47:00,57.2,55.2,29.94,SSE,150,0.0,5.0,93,0.00,,,0.00,meteohub,2013-02-23 02:47:00,
2013-02-22 20:52:00,57.4,55.4,29.94,SSE,150,2.0,3.0,93,0.00,,,0.00,meteohub,2013-02-23 02:52:00,
2013-02-22 20:57:00,57.2,55.2,29.94,SSE,150,2.0,3.0,93,0.00,,,0.00,meteohub,2013-02-23 02:57:00,
2013-02-22 21:02:00,57.4,55.4,29.94,SSE,150,4.0,4.0,93,0.00,,,0.00,meteohub,2013-02-23 03:02:00,
2013-02-22 21:07:00,57.4,54.9,29.94,NNE,17,4.0,7.0,91,0.00,,,0.00,meteohub,2013-02-23 03:07:00,
2013-02-22 21:12:00,57.7,55.2,29.94,NNE,15,2.0,8.0,91,0.00,,,0.00,meteohub,2013-02-23 03:12:00,
2013-02-22 21:17:00,57.6,55.0,29.94,North,355,2.0,12.0,91,0.00,,,0.00,meteohub,2013-02-23 03:17:00,
2013-02-22 21:22:00,57.2,54.7,29.94,North,0,1.0,12.0,91,0.00,,,0.00,meteohub,2013-02-23 03:22:00,
2013-02-22 21:27:00,56.8,54.3,29.95,NNW,336,3.0,12.0,91,0.00,,,0.00,meteohub,2013-02-23 03:27:00,
2013-02-22 21:32:00,56.8,54.3,29.94,NNE,20,4.0,10.0,91,0.00,,,0.00,meteohub,2013-02-23 03:32:00,
2013-02-22 21:37:00,56.7,53.8,29.94,NNE,13,7.0,10.0,90,0.00,,,0.00,meteohub,2013-02-23 03:37:00,
2013-02-22 21:42:00,56.5,53.6,29.94,North,9,4.0,14.0,90,0.00,,,0.00,meteohub,2013-02-23 03:42:00,
2013-02-22 21:47:00,56.3,53.4,29.94,NNE,17,7.0,14.0,90,0.00,,,0.00,meteohub,2013-02-23 03:47:00,
2013-02-22 21:52:00,56.1,53.2,29.94,NE,46,8.0,14.0,90,0.00,,,0.00,meteohub,2013-02-23 03:52:00,
2013-02-22 21:57:00,55.9,53.1,29.94,NE,53,3.0,12.0,90,0.00,,,0.00,meteohub,2013-02-23 03:57:00,
2013-02-22 22:02:00,55.9,53.1,29.93,NNE,26,4.0,12.0,90,0.00,,,0.00,meteohub,2013-02-23 04:02:00,
2013-02-22 22:07:00,55.9,53.4,29.93,ENE,58,3.0,10.0,91,0.00,,,0.00,meteohub,2013-02-23 04:07:00,
2013-02-22 22:12:00,55.9,53.4,29.92,ENE,76,2.0,10.0,91,0.00,,,0.00,meteohub,2013-02-23 04:12:00,
2013-02-22 22:17:00,55.8,53.2,29.93,NE,52,5.0,8.0,91,0.00,,,0.00,meteohub,2013-02-23 04:17:00,
2013-02-22 22:22:00,55.8,53.4,29.94,NE,51,1.0,9.0,92,0.00,,,0.00,meteohub,2013-02-23 04:22:00,
2013-02-22 22:27:00,55.8,53.4,29.93,NE,51,4.0,9.0,92,0.00,,,0.00,meteohub,2013-02-23 04:27:00,
2013-02-22 22:32:00,55.6,53.2,29.93,North,5,6.0,7.0,92,0.00,,,0.00,meteohub,2013-02-23 04:32:00,
2013-02-22 22:37:00,55.6,53.2,29.94,NNE,14,2.0,8.0,92,0.00,,,0.00,meteohub,2013-02-23 04:37:00,
2013-02-22 22:42:00,55.8,53.4,29.93,North,5,3.0,8.0,92,0.00,,,0.00,meteohub,2013-02-23 04:42:00,
2013-02-22 22:47:00,55.6,53.2,29.93,North,9,4.0,8.0,92,0.00,,,0.00,meteohub,2013-02-23 04:47:00,
2013-02-22 22:52:00,55.8,53.8,29.93,NNW,344,5.0,7.0,93,0.00,,,0.00,meteohub,2013-02-23 04:52:00,
2013-02-22 22:57:00,55.8,53.8,29.93,North,351,5.0,7.0,93,0.00,,,0.00,meteohub,2013-02-23 04:57:00,
2013-02-22 23:00:00,55.8,53.8,29.93,NE,40,7.0,7.0,93,0.00,,,0.00,meteohub,2013-02-23 05:00:00,
2013-02-22 23:05:00,55.8,53.4,29.93,ENE,57,4.0,10.0,92,0.00,,,0.00,meteohub,2013-02-23 05:05:00,
2013-02-22 23:10:00,55.8,53.4,29.93,NE,43,4.0,11.0,92,0.00,,,0.00,meteohub,2013-02-23 05:10:00,
2013-02-22 23:15:00,55.8,53.8,29.93,NE,36,8.0,11.0,93,0.00,,,0.00,meteohub,2013-02-23 05:15:00,
2013-02-22 23:20:00,55.8,53.8,29.91,NE,36,6.0,11.0,93,0.00,,,0.00,meteohub,2013-02-23 05:20:00,
2013-02-22 23:25:00,55.6,53.2,29.92,North,0,5.0,11.0,92,0.00,,,0.00,meteohub,2013-02-23 05:25:00,
2013-02-22 23:30:00,55.6,53.2,29.92,North,0,3.0,11.0,92,0.00,,,0.00,meteohub,2013-02-23 05:30:00,
2013-02-22 23:35:00,55.6,53.2,29.91,NE,38,3.0,11.0,92,0.00,,,0.00,meteohub,2013-02-23 05:35:00,
2013-02-22 23:40:00,55.6,53.2,29.91,North,11,8.0,11.0,92,0.00,,,0.00,meteohub,2013-02-23 05:40:00,
2013-02-22 23:45:00,55.8,53.4,29.92,NNE,16,4.0,11.0,92,0.00,,,0.00,meteohub,2013-02-23 05:45:00,
2013-02-22 23:50:00,55.8,53.2,29.93,NNE,15,8.0,10.0,91,0.00,,,0.00,meteohub,2013-02-23 05:50:00,
2013-02-22 23:55:00,55.8,53.2,29.93,NNE,26,3.0,9.0,91,0.00,,,0.00,meteohub,2013-02-23 05:55:00,